Sheldon, IA

5:41 AM CDT on May 26, 2018 (GMT -0500)
Sheldon Municipal

Weather History for KSHL - January, 2012

Change the Weather History Date:

Sunday, January 29, 2012

  Actual Average Record
Temperature  
Mean Temperature 19 °F -  
Max Temperature 30 °F 26 °F 48 °F (1976)
Min Temperature 10 °F 8 °F -28 °F (1966)
Degree Days  
Heating Degree Days 46    
Moisture  
Dew Point 16 °F    
Average Humidity 78    
Maximum Humidity 92    
Minimum Humidity 64    
Precipitation  
Precipitation 0.00 in - - ()
Sea Level Pressure  
Sea Level Pressure 30.10 in    
Wind  
Wind Speed 10 mph (SSW)    
Max Wind Speed 17 mph    
Max Gust Speed 23 mph    
Visibility 10 miles    
Events      
Averages and records for this station are not official NWS values.
T = Trace of Precipitation, MM = Missing Value Source: NWS Daily Summary

Daily Weather History Graph

Daily Weather History Graph

Search for Another Location

Airport or City:

Astronomy

Jan. 29, 2012 Rise Set
Actual Time 7:42 AM CST 5:30 PM CST
Civil Twilight 7:11 AM CST 6:01 PM CST
Nautical Twilight 6:37 AM CST 6:35 PM CST
Astronomical Twilight 6:04 AM CST 7:09 PM CST
Moon 10:21 AM CST (1/29) No Moon Set
Length of Visible Light 10h 49m
Length of Day
9h 48m
Waxing Crescent, 37% of the Moon is Illuminated
Jan 29
Waxing Crescent
Jan 30
First Quarter
Feb 7
Full
Feb 14
Last Quarter
Feb 21
New

Hourly Weather History & Observations

Time (CST) Temp. Windchill Dew Point Humidity Pressure Visibility Wind Dir Wind Speed Gust Speed Precip Events Conditions
12:15 AM 28.4 °F 18.0 °F 21.2 °F 74% 30.04 in 10.0 mi NW 12.7 mph - N/A   Overcast
12:35 AM 28.4 °F 18.5 °F 21.2 °F 74% 30.04 in 10.0 mi NW 11.5 mph - N/A   Overcast
12:55 AM 28.4 °F 17.5 °F 21.2 °F 74% 30.04 in 10.0 mi NW 13.8 mph - N/A   Scattered Clouds
1:15 AM 26.6 °F 15.2 °F 19.4 °F 74% 30.05 in 10.0 mi NW 13.8 mph - N/A   Clear
1:35 AM 26.6 °F 14.3 °F 19.4 °F 74% 30.06 in 10.0 mi NW 16.1 mph 21.9 mph N/A   Clear
1:55 AM 24.8 °F 11.5 °F 17.6 °F 74% 30.07 in 10.0 mi NW 17.3 mph 23.0 mph N/A   Clear
2:15 AM 24.8 °F 13.4 °F 17.6 °F 74% 30.08 in 10.0 mi WNW 12.7 mph 17.3 mph N/A   Clear
2:35 AM 23.0 °F 9.6 °F 17.6 °F 80% 30.09 in 10.0 mi NW 16.1 mph - N/A   Clear
2:55 AM 21.2 °F 8.3 °F 15.8 °F 80% 30.10 in 10.0 mi NNW 13.8 mph - N/A   Clear
3:15 AM 21.2 °F 9.5 °F 17.6 °F 86% 30.11 in 10.0 mi NW 11.5 mph - N/A   Clear
3:35 AM 19.4 °F 6.0 °F 15.8 °F 86% 30.12 in 10.0 mi NW 13.8 mph - N/A   Clear
3:55 AM 19.4 °F 6.6 °F 15.8 °F 86% 30.12 in 10.0 mi NW 12.7 mph - N/A   Clear
4:35 AM 19.4 °F 8.6 °F 14.0 °F 80% 30.13 in 10.0 mi NW 9.2 mph - N/A   Clear
4:55 AM 15.8 °F 7.2 °F 10.4 °F 79% 30.13 in 10.0 mi NW 5.8 mph - N/A   Clear
5:15 AM 14.0 °F 5.1 °F 10.4 °F 86% 30.13 in 10.0 mi NW 5.8 mph - N/A   Clear
5:55 AM 12.2 °F 2.9 °F 10.4 °F 92% 30.14 in 10.0 mi NNW 5.8 mph - N/A   Clear
6:15 AM 10.4 °F -0.4 °F 8.6 °F 92% 30.15 in 10.0 mi WNW 6.9 mph - N/A   Clear
6:35 AM 12.2 °F -1.0 °F 8.6 °F 85% 30.17 in 10.0 mi WNW 10.4 mph - N/A   Clear
6:55 AM 12.2 °F -1.8 °F 8.6 °F 85% 30.17 in 10.0 mi WNW 11.5 mph - N/A   Clear
7:15 AM 12.2 °F -0.2 °F 10.4 °F 92% 30.17 in 10.0 mi WNW 9.2 mph - N/A   Clear
7:35 AM 12.2 °F 1.7 °F 10.4 °F 92% 30.17 in 10.0 mi NW 6.9 mph - N/A   Clear
7:55 AM 10.4 °F 4.0 °F 6.8 °F 85% 30.17 in 10.0 mi NW 3.5 mph - N/A   Clear
8:15 AM 10.4 °F 2.2 °F 8.6 °F 92% 30.18 in 10.0 mi NW 4.6 mph - N/A   Clear
8:35 AM 12.2 °F 6.1 °F 8.6 °F 85% 30.18 in 10.0 mi NNW 3.5 mph - N/A   Clear
8:55 AM 12.2 °F - 8.6 °F 85% 30.18 in 10.0 mi Calm Calm - N/A   Clear
9:15 AM 14.0 °F - 10.4 °F 86% 30.18 in 10.0 mi Calm Calm - N/A   Clear
9:35 AM 14.0 °F - 10.4 °F 86% 30.18 in 10.0 mi Calm Calm - N/A   Clear
9:55 AM 15.8 °F - 10.4 °F 79% 30.18 in 10.0 mi Calm Calm - N/A   Clear
10:15 AM 15.8 °F - 12.2 °F 86% 30.18 in 10.0 mi Calm Calm - N/A   Clear
10:35 AM 17.6 °F - 12.2 °F 79% 30.19 in 10.0 mi Calm Calm - N/A   Clear
10:55 AM 19.4 °F - 12.2 °F 74% 30.20 in 10.0 mi Calm Calm - N/A   Clear
11:15 AM 21.2 °F - 14.0 °F 74% 30.19 in 10.0 mi Calm Calm - N/A   Clear
11:35 AM 21.2 °F 16.4 °F 15.8 °F 80% 30.18 in 10.0 mi SE 3.5 mph - N/A   Clear
11:55 AM 21.2 °F 13.6 °F 15.8 °F 80% 30.18 in 10.0 mi SSE 5.8 mph - N/A   Clear
12:15 PM 21.2 °F 12.6 °F 15.8 °F 80% 30.17 in 10.0 mi SSE 6.9 mph - N/A   Clear
12:35 PM 23.0 °F 14.7 °F 15.8 °F 74% 30.16 in 10.0 mi SE 6.9 mph - N/A   Clear
12:55 PM 23.0 °F 14.7 °F 15.8 °F 74% 30.16 in 10.0 mi SSE 6.9 mph - N/A   Clear
1:15 PM 23.0 °F 13.9 °F 17.6 °F 80% 30.15 in 10.0 mi South 8.1 mph - N/A   Clear
1:35 PM 24.8 °F 17.9 °F 17.6 °F 74% 30.14 in 10.0 mi South 5.8 mph - N/A   Clear
1:55 PM 24.8 °F 17.9 °F 17.6 °F 74% 30.12 in 10.0 mi SSE 5.8 mph - N/A   Scattered Clouds
2:15 PM 24.8 °F 15.3 °F 17.6 °F 74% 30.11 in 10.0 mi South 9.2 mph - N/A   Clear
2:35 PM 24.8 °F 15.3 °F 17.6 °F 74% 30.11 in 10.0 mi South 9.2 mph - N/A   Scattered Clouds
2:55 PM 24.8 °F 16.1 °F 17.6 °F 74% 30.10 in 10.0 mi South 8.1 mph - N/A   Scattered Clouds
3:15 PM 24.8 °F 14.6 °F 17.6 °F 74% 30.09 in 10.0 mi SSE 10.4 mph - N/A   Scattered Clouds
3:35 PM 26.6 °F 15.7 °F 17.6 °F 69% 30.08 in 10.0 mi South 12.7 mph - N/A   Scattered Clouds
3:55 PM 26.6 °F 17.5 °F 17.6 °F 69% 30.08 in 10.0 mi SSE 9.2 mph - N/A   Scattered Clouds
4:15 PM 26.6 °F 16.8 °F 17.6 °F 69% 30.07 in 10.0 mi SSE 10.4 mph - N/A   Scattered Clouds
4:35 PM 26.6 °F 16.2 °F 19.4 °F 74% 30.05 in 10.0 mi SSE 11.5 mph - N/A   Scattered Clouds
4:55 PM 26.6 °F 17.5 °F 19.4 °F 74% 30.06 in 10.0 mi SSE 9.2 mph - N/A   Mostly Cloudy
5:15 PM 26.6 °F 19.1 °F 19.4 °F 74% 30.06 in 10.0 mi SSE 6.9 mph - N/A   Overcast
5:35 PM 26.6 °F 17.5 °F 19.4 °F 74% 30.04 in 10.0 mi SSE 9.2 mph - N/A   Overcast
5:55 PM 26.6 °F 17.5 °F 19.4 °F 74% 30.03 in 10.0 mi SE 9.2 mph - N/A   Mostly Cloudy
6:15 PM 26.6 °F 16.8 °F 21.2 °F 80% 30.01 in 10.0 mi SE 10.4 mph - N/A   Overcast
6:35 PM 26.6 °F 16.2 °F 21.2 °F 80% 30.01 in 10.0 mi SE 11.5 mph - N/A   Overcast
6:55 PM 26.6 °F 16.2 °F 21.2 °F 80% 30.00 in 10.0 mi SE 11.5 mph - N/A   Mostly Cloudy
7:15 PM 26.6 °F 15.7 °F 19.4 °F 74% 29.99 in 10.0 mi SSE 12.7 mph - N/A   Mostly Cloudy
7:35 PM 28.4 °F 18.0 °F 19.4 °F 69% 29.97 in 10.0 mi SSE 12.7 mph - N/A   Overcast
7:55 PM 28.4 °F 18.5 °F 19.4 °F 69% 29.97 in 10.0 mi SSE 11.5 mph - N/A   Overcast
8:15 PM 28.4 °F 18.0 °F 19.4 °F 69% 29.96 in 10.0 mi SSE 12.7 mph - N/A   Overcast
8:35 PM 28.4 °F 18.5 °F 19.4 °F 69% 29.96 in 10.0 mi SSE 11.5 mph - N/A   Overcast
8:55 PM 30.2 °F 18.9 °F 19.4 °F 64% 29.94 in 10.0 mi SSE 16.1 mph - N/A   Overcast
9:15 PM 30.2 °F 19.3 °F 19.4 °F 64% 29.92 in 10.0 mi SSE 15.0 mph - N/A   Overcast
9:35 PM 30.2 °F 18.9 °F 21.2 °F 69% 29.89 in 10.0 mi South 16.1 mph - N/A   Mostly Cloudy
10:15 PM 30.2 °F 18.5 °F 21.2 °F 69% 29.87 in 10.0 mi South 17.3 mph - N/A   Scattered Clouds
10:35 PM 30.2 °F 19.3 °F 21.2 °F 69% 29.86 in 10.0 mi South 15.0 mph - N/A   Scattered Clouds
10:55 PM 30.2 °F 19.8 °F 21.2 °F 69% 29.85 in 10.0 mi South 13.8 mph - N/A   Scattered Clouds
11:15 PM 30.2 °F 19.3 °F 21.2 °F 69% 29.83 in 10.0 mi South 15.0 mph - N/A   Mostly Cloudy
11:35 PM 32.0 °F 20.8 °F 21.2 °F 64% 29.82 in 10.0 mi South 17.3 mph - N/A   Mostly Cloudy
11:55 PM 32.0 °F 21.6 °F 21.2 °F 64% 29.81 in 10.0 mi South 15.0 mph - N/A   Mostly Cloudy